�������l�o���
Date,Time,MP-1(��Sv/h),MP-2(��Sv/h),MP-3(��Sv/h),MP-4(��Sv/h),MP-5(��Sv/h),MP-6(��Sv/h),MP-7(��Sv/h),MP-8(��Sv/h),����,����(m/s),���J
2019/02/28,00:00,0.787,1.163,0.806,1.493,1.081,0.447,0.793,0.750,��쐼,1.5,��
2019/02/28,00:10,0.787,1.164,0.804,1.494,1.080,0.448,0.791,0.750,��쐼,1.5,��
2019/02/28,00:20,0.786,1.163,0.804,1.493,1.078,0.448,0.791,0.750,��쐼,2.3,��
2019/02/28,00:30,0.788,1.164,0.804,1.492,1.080,0.446,0.793,0.750,��,1.7,��
2019/02/28,00:40,0.786,1.165,0.804,1.492,1.081,0.446,0.792,0.751,��,2.3,��
2019/02/28,00:50,0.789,1.162,0.804,1.495,1.077,0.447,0.792,0.749,��,3.3,��
2019/02/28,01:00,0.787,1.162,0.803,1.496,1.078,0.447,0.791,0.748,��,2.3,�L
2019/02/28,01:10,0.787,1.163,0.805,1.493,1.080,0.447,0.793,0.751,��,1.7,�L
2019/02/28,01:20,0.788,1.162,0.803,1.492,1.079,0.447,0.793,0.751,�쐼,0.9,�L
2019/02/28,01:30,0.788,1.163,0.805,1.493,1.081,0.447,0.794,0.752,���k��,1.7,��
2019/02/28,01:40,0.788,1.163,0.804,1.496,1.078,0.447,0.792,0.750,��,1.2,��
2019/02/28,01:50,0.785,1.165,0.805,1.494,1.080,0.446,0.794,0.750,���k��,2.0,��
2019/02/28,02:00,0.789,1.161,0.804,1.491,1.078,0.446,0.794,0.750,-,CALM,��
2019/02/28,02:10,0.787,1.163,0.804,1.494,1.078,0.446,0.792,0.751,-,CALM,�L
2019/02/28,02:20,0.787,1.163,0.804,1.496,1.078,0.447,0.791,0.750,�쓌,1.4,�L
2019/02/28,02:30,0.787,1.164,0.805,1.493,1.078,0.446,0.792,0.749,��쓌,2.3,�L
2019/02/28,02:40,0.786,1.164,0.807,1.492,1.081,0.448,0.792,0.751,�쓌,2.3,�L
2019/02/28,02:50,0.788,1.163,0.806,1.495,1.079,0.446,0.792,0.750,��쓌,3.1,�L
2019/02/28,03:00,0.787,1.165,0.805,1.492,1.081,0.447,0.793,0.750,��쓌,3.9,�L
2019/02/28,03:10,0.787,1.163,0.805,1.493,1.081,0.447,0.794,0.750,��쓌,3.5,�L
2019/02/28,03:20,0.787,1.164,0.806,1.496,1.081,0.447,0.793,0.750,��,3.5,�L
2019/02/28,03:30,0.786,1.162,0.805,1.495,1.079,0.448,0.793,0.749,��,1.9,�L
2019/02/28,03:40,0.788,1.162,0.806,1.493,1.078,0.447,0.793,0.750,��,4.1,�L
2019/02/28,03:50,0.789,1.162,0.804,1.496,1.079,0.447,0.793,0.750,��,3.1,�L
2019/02/28,04:00,0.787,1.161,0.804,1.492,1.078,0.448,0.794,0.751,��,3.2,�L
2019/02/28,04:10,0.784,1.156,0.801,1.492,1.074,0.447,0.792,0.749,��,2.9,�L
2019/02/28,04:20,0.783,1.153,0.802,1.490,1.070,0.448,0.793,0.750,��쐼,2.2,�L
2019/02/28,04:30,0.784,1.154,0.801,1.491,1.070,0.449,0.790,0.749,���쐼,1.5,�L
2019/02/28,04:40,0.785,1.152,0.801,1.486,1.069,0.447,0.790,0.747,��,1.2,�L
2019/02/28,04:50,0.782,1.149,0.801,1.486,1.068,0.448,0.790,0.746,�k��,0.9,�L
2019/02/28,05:00,0.783,1.148,0.800,1.487,1.068,0.448,0.790,0.746,�k,1.4,�L
2019/02/28,05:10,0.781,1.149,0.801,1.485,1.065,0.447,0.789,0.747,�k,2.2,�L
2019/02/28,05:20,0.780,1.148,0.800,1.485,1.065,0.447,0.789,0.748,�k�k��,3.5,�L
2019/02/28,05:30,0.779,1.146,0.800,1.481,1.063,0.445,0.789,0.746,�k�k��,3.8,�L
2019/02/28,05:40,0.779,1.144,0.798,1.485,1.064,0.446,0.789,0.746,�k��,2.6,�L
2019/02/28,05:50,0.779,1.143,0.798,1.483,1.059,0.447,0.789,0.746,�k��,2.0,�L
2019/02/28,06:00,0.778,1.144,0.797,1.482,1.062,0.446,0.788,0.746,�k��,2.6,�L
2019/02/28,06:10,0.778,1.141,0.796,1.478,1.059,0.445,0.787,0.747,�k�k��,3.6,�L
2019/02/28,06:20,0.776,1.137,0.796,1.478,1.058,0.445,0.788,0.745,�k�k��,3.9,�L
2019/02/28,06:30,0.778,1.136,0.795,1.476,1.054,0.445,0.788,0.746,�k�k��,3.6,�L
2019/02/28,06:40,0.775,1.134,0.796,1.477,1.055,0.446,0.786,0.744,�k�k��,7.4,�L
2019/02/28,06:50,0.776,1.134,0.794,1.478,1.053,0.446,0.788,0.746,�k�k��,7.6,�L
2019/02/28,07:00,0.776,1.133,0.794,1.473,1.054,0.445,0.786,0.744,�k�k��,7.5,�L
2019/02/28,07:10,0.774,1.131,0.791,1.469,1.055,0.445,0.786,0.743,�k�k��,7.7,�L
2019/02/28,07:20,0.775,1.131,0.794,1.475,1.055,0.444,0.786,0.744,�k�k��,7.3,�L
2019/02/28,07:30,0.774,1.133,0.793,1.474,1.053,0.445,0.786,0.743,�k�k��,7.5,�L
2019/02/28,07:40,0.772,1.130,0.792,1.473,1.054,0.444,0.784,0.745,�k,6.8,�L
2019/02/28,07:50,0.774,1.130,0.792,1.475,1.054,0.444,0.786,0.743,�k,7.7,�L
2019/02/28,08:00,0.774,1.129,0.790,1.471,1.054,0.443,0.786,0.742,�k,7.5,�L
2019/02/28,08:10,0.771,1.129,0.792,1.472,1.050,0.444,0.787,0.744,�k,7.3,��
2019/02/28,08:20,0.771,1.128,0.790,1.473,1.052,0.441,0.785,0.743,�k,7.7,��
2019/02/28,08:30,0.772,1.128,0.789,1.471,1.052,0.444,0.786,0.744,�k�k��,6.5,��
2019/02/28,08:40,0.773,1.129,0.788,1.473,1.051,0.441,0.787,0.744,�k,7.1,��
2019/02/28,08:50,0.772,1.124,0.790,1.471,1.051,0.441,0.785,0.743,�k,7.1,��
2019/02/28,09:00,0.771,1.127,0.789,1.471,1.052,0.442,0.786,0.744,�k�k��,6.8,��
2019/02/28,09:10,0.770,1.128,0.788,1.474,1.054,0.441,0.787,0.743,�k�k��,7.3,��
2019/02/28,09:20,0.772,1.115,0.789,1.474,1.051,0.442,0.787,0.743,�k,7.1,�L
2019/02/28,09:30,0.771,1.105,0.790,1.470,1.051,0.442,0.785,0.743,�k,6.5,�L
2019/02/28,09:40,0.773,1.112,0.792,1.474,1.053,0.443,0.788,0.745,�k,7.8,�L
2019/02/28,09:50,0.774,-,0.791,1.473,1.053,0.442,0.788,0.744,�k�k��,7.4,�L
2019/02/28,10:00,0.774,-,0.790,1.473,1.053,0.443,0.784,0.745,�k,6.8,�L
2019/02/28,10:10,0.776,-,0.792,1.474,1.054,0.446,0.787,0.744,�k,6.2,�L
2019/02/28,10:20,0.773,-,0.792,1.472,1.054,0.443,0.787,0.744,�k�k��,6.1,�L
2019/02/28,10:30,0.774,1.114,0.793,1.475,1.054,0.445,0.787,0.745,�k�k��,5.8,�L
2019/02/28,10:40,0.774,1.116,0.791,1.475,1.055,0.444,0.788,0.746,�k�k��,5.9,�L
2019/02/28,10:50,0.775,1.109,0.792,1.475,1.053,0.445,0.786,0.744,�k�k��,6.3,�L
2019/02/28,11:00,0.775,1.113,0.794,1.475,1.051,0.444,0.788,0.744,�k�k��,5.4,�L
2019/02/28,11:10,0.776,1.114,0.794,1.473,1.053,0.446,0.787,0.745,�k�k��,7.1,�L
2019/02/28,11:20,0.776,1.110,0.791,1.474,1.049,0.447,0.787,0.744,�k�k��,7.0,�L
2019/02/28,11:30,0.774,1.113,0.791,1.470,1.049,0.447,0.786,0.745,�k�k��,8.2,�L
2019/02/28,11:40,0.772,1.113,0.793,1.469,1.047,0.445,0.787,0.744,�k�k��,7.2,�L
2019/02/28,11:50,0.771,1.114,0.789,1.467,1.043,0.446,0.786,0.744,�k�k��,7.5,�L
2019/02/28,12:00,0.770,1.111,0.788,1.466,1.044,0.447,0.789,0.745,�k�k��,6.6,�L
2019/02/28,12:10,0.772,1.101,0.789,1.467,1.043,0.445,0.786,0.743,�k�k��,7.0,�L
2019/02/28,12:20,0.770,1.089,0.785,1.466,1.043,0.446,0.787,0.743,�k�k��,6.5,�L
2019/02/28,12:30,0.768,1.089,0.787,1.463,1.040,0.446,0.785,0.742,�k�k��,6.5,�L
2019/02/28,12:40,0.768,1.094,0.786,1.458,1.038,0.447,0.785,0.742,�k�k��,6.1,�L
2019/02/28,12:50,0.769,1.091,0.785,1.461,1.039,0.446,0.785,0.742,�k�k��,5.7,�L
2019/02/28,13:00,0.767,1.082,0.787,1.457,1.039,0.446,0.784,0.742,�k�k��,5.6,�L
2019/02/28,13:10,0.768,1.085,0.785,1.457,1.037,0.445,0.785,0.742,�k�k��,5.6,�L
2019/02/28,13:20,0.765,1.086,0.784,1.454,1.037,0.443,0.784,0.742,�k�k��,4.9,�L
2019/02/28,13:30,0.766,1.087,0.785,1.455,1.037,0.445,0.785,0.742,�k�k��,6.0,�L
2019/02/28,13:40,0.765,1.086,0.782,1.450,1.037,0.445,0.783,0.741,�k,6.6,�L
2019/02/28,13:50,0.763,1.083,0.783,1.450,1.035,0.444,0.784,0.742,�k,6.1,�L
2019/02/28,14:00,0.763,1.080,0.782,1.450,1.035,0.445,0.783,0.742,�k�k��,6.7,�L
2019/02/28,14:10,0.765,1.081,0.782,1.446,1.034,0.445,0.783,0.742,�k�k��,8.4,�L
2019/02/28,14:20,0.762,1.080,0.781,1.447,1.035,0.445,0.783,0.741,�k�k��,7.7,�L
2019/02/28,14:30,0.764,1.078,0.782,1.449,1.033,0.445,0.781,0.739,�k�k��,8.0,�L
2019/02/28,14:40,0.764,1.079,0.781,1.444,1.032,0.445,0.782,0.741,�k�k��,6.5,�L
2019/02/28,14:50,0.762,1.083,0.778,1.445,1.030,0.443,0.781,0.738,�k�k��,6.1,�L
2019/02/28,15:00,0.762,1.080,0.779,1.443,1.032,0.444,0.782,0.739,�k�k��,6.1,�L
2019/02/28,15:10,0.763,1.070,0.777,1.441,1.024,0.444,0.783,0.740,�k�k��,6.2,�L
2019/02/28,15:20,0.761,1.068,0.777,1.440,1.026,0.443,0.782,0.739,�k,5.9,�L
2019/02/28,15:30,0.761,1.070,0.779,1.438,1.027,0.444,0.782,0.739,�k�k��,5.6,�L
2019/02/28,15:40,0.758,1.064,0.777,1.439,1.026,0.442,0.781,0.739,�k�k��,5.6,�L
2019/02/28,15:50,0.760,1.077,0.777,1.439,1.028,0.441,0.781,0.736,�k�k��,5.0,�L
2019/02/28,16:00,0.758,1.094,0.775,1.439,1.026,0.442,0.781,0.736,�k�k��,5.0,�L
2019/02/28,16:10,0.757,1.099,0.775,1.437,1.024,0.441,0.781,0.738,�k�k��,5.5,�L
2019/02/28,16:20,0.756,1.098,0.772,1.440,1.024,0.441,0.780,0.739,�k�k��,5.7,�L
2019/02/28,16:30,0.757,1.098,0.775,1.437,1.024,0.442,0.780,0.736,�k�k��,6.2,�L
2019/02/28,16:40,0.760,1.099,0.773,1.436,1.023,0.441,0.778,0.738,�k�k��,6.5,�L
2019/02/28,16:50,0.756,1.096,0.772,1.436,1.024,0.440,0.778,0.740,�k�k��,6.7,�L
2019/02/28,17:00,0.756,1.088,0.771,1.436,1.023,0.440,0.780,0.737,�k�k��,6.2,�L
2019/02/28,17:10,0.756,1.086,0.773,1.433,1.024,0.438,0.778,0.738,�k�k��,6.7,�L
2019/02/28,17:20,0.757,1.082,0.771,1.435,1.021,0.441,0.775,0.736,�k�k��,6.3,�L
2019/02/28,17:30,0.754,-,0.773,1.434,1.021,0.439,0.775,0.736,�k�k��,6.2,�L
2019/02/28,17:40,0.756,-,0.774,1.433,1.021,0.441,0.775,0.735,�k�k��,5.1,�L
2019/02/28,17:50,0.755,-,0.773,1.432,1.020,0.439,0.778,0.734,�k�k��,5.6,�L
2019/02/28,18:00,0.754,-,0.771,1.429,1.021,0.440,0.777,0.736,�k�k��,5.8,�L
2019/02/28,18:10,0.756,1.076,0.771,1.435,1.020,0.441,0.778,0.737,�k�k��,7.1,�L
2019/02/28,18:20,0.755,1.082,0.771,1.430,1.023,0.439,0.778,0.736,�k�k��,6.5,�L
2019/02/28,18:30,0.753,1.082,0.771,1.431,1.020,0.439,0.778,0.735,�k�k��,7.1,�L
2019/02/28,18:40,0.753,1.089,0.770,1.431,1.021,0.439,0.778,0.736,�k�k��,6.4,�L
2019/02/28,18:50,0.753,1.094,0.771,1.428,1.018,0.438,0.776,0.736,�k�k��,7.1,�L
2019/02/28,19:00,0.754,1.092,0.769,1.429,1.019,0.438,0.777,0.736,�k,6.9,��
2019/02/28,19:10,0.751,1.091,0.769,1.431,1.021,0.438,0.778,0.734,�k�k��,5.9,��
2019/02/28,19:20,0.752,1.093,0.770,1.430,1.022,0.437,0.776,0.734,�k�k��,5.9,��
2019/02/28,19:30,0.750,1.093,0.771,1.428,1.018,0.436,0.777,0.735,�k�k��,7.4,��
2019/02/28,19:40,0.754,1.093,0.769,1.432,1.019,0.436,0.776,0.735,�k�k��,7.1,��
2019/02/28,19:50,0.750,1.095,0.771,1.430,1.021,0.436,0.777,0.735,�k�k��,8.1,�L
2019/02/28,20:00,0.752,1.093,0.768,1.430,1.022,0.436,0.777,0.736,�k�k��,8.7,�L
2019/02/28,20:10,0.753,1.091,0.769,1.429,1.020,0.435,0.778,0.738,�k�k��,7.3,�L
2019/02/28,20:20,0.752,1.096,0.770,1.428,1.019,0.434,0.777,0.737,�k�k��,7.7,�L
2019/02/28,20:30,0.753,1.095,0.768,1.429,1.022,0.435,0.778,0.736,�k�k��,6.6,�L
2019/02/28,20:40,0.752,1.094,0.771,1.431,1.019,0.434,0.778,0.736,�k�k��,6.8,�L
2019/02/28,20:50,0.751,1.098,0.769,1.430,1.019,0.436,0.777,0.735,�k�k��,6.4,��
2019/02/28,21:00,0.754,1.097,0.770,1.431,1.021,0.435,0.777,0.736,�k�k��,6.9,��
2019/02/28,21:10,0.753,1.095,0.772,1.430,1.021,0.436,0.777,0.733,�k�k��,6.2,��
2019/02/28,21:20,0.754,1.094,0.769,1.431,1.022,0.437,0.776,0.735,�k�k��,8.1,��
2019/02/28,21:30,0.755,1.094,0.770,1.435,1.023,0.437,0.777,0.735,�k�k��,7.7,��
2019/02/28,21:40,0.753,1.095,0.769,1.432,1.021,0.437,0.778,0.737,�k�k��,7.6,��
2019/02/28,21:50,0.753,1.095,0.772,1.433,1.021,0.435,0.778,0.736,�k�k��,7.1,��
2019/02/28,22:00,0.755,1.096,0.770,1.431,1.020,0.435,0.778,0.737,�k�k��,7.7,��
2019/02/28,22:10,0.754,1.097,0.770,1.432,1.022,0.434,0.778,0.737,�k�k��,7.8,��
2019/02/28,22:20,0.754,1.095,0.771,1.434,1.023,0.437,0.777,0.736,�k�k��,7.4,��
2019/02/28,22:30,0.753,1.097,0.771,1.433,1.020,0.437,0.778,0.735,�k�k��,7.4,��
2019/02/28,22:40,0.754,1.095,0.771,1.433,1.021,0.436,0.779,0.735,�k�k��,7.7,��
2019/02/28,22:50,0.756,1.097,0.769,1.432,1.022,0.435,0.778,0.737,�k�k��,7.1,��
2019/02/28,23:00,0.754,1.099,0.771,1.434,1.022,0.436,0.777,0.735,�k�k��,6.2,��
2019/02/28,23:10,0.754,1.098,0.771,1.434,1.021,0.436,0.777,0.736,�k�k��,6.2,��
2019/02/28,23:20,0.753,1.096,0.771,1.435,1.024,0.436,0.779,0.738,�k�k��,7.6,��
2019/02/28,23:30,0.753,1.099,0.771,1.434,1.021,0.436,0.779,0.737,�k,7.9,��
2019/02/28,23:40,0.752,1.097,0.772,1.432,1.024,0.436,0.778,0.737,�k,6.8,��
2019/02/28,23:50,0.753,1.097,0.771,1.434,1.024,0.437,0.780,0.737,�k,6.9,��
